GW4718 Weather Reports


time (UTC)temp
C
wind
direction
speed
KPH
gust
KPH
rain 1hr
cm
rain 24hr
cm
rain mn
cm
humidity
%
barometer
mb
20260504014337 5 148 1.6 1.6 0.00 0.00 0.00 65 1018.3
20260504013835 5 91 0.0 1.6 0.00 0.00 0.00 68 1017.9
20260504013333 5 259 0.0 1.6 0.00 0.00 0.00 67 1017.9
20260504012830 6 273 1.6 3.2 0.00 0.00 0.00 67 1017.8
20260504012328 6 86 0.0 1.6 0.00 0.00 0.00 63 1017.7
20260504011825 5 81 1.6 4.8 0.00 0.00 0.00 63 1017.7
20260504011321 6 231 3.2 4.8 0.00 0.00 0.00 67 1017.5
20260504010817 6 85 0.0 0.0 0.00 0.00 0.00 62 1017.5
20260504010313 6 150 1.6 3.2 0.00 0.00 0.00 65 1017.5
20260504005809 6 231 0.0 0.0 0.00 0.00 0.00 61 1017.5
20260504005306 6 245 0.0 3.2 0.00 0.00 0.00 62 1017.4
20260504004804 6 71 4.8 4.8 0.00 0.00 0.00 57 1017.4
20260504004301 7 229 3.2 4.8 0.00 0.00 0.00 60 1017.5
20260504003757 7 84 3.2 4.8 0.00 0.00 0.00 53 1017.2
20260504003255 7 105 1.6 3.2 0.00 0.00 0.00 57 1017.3
20260504002752 8 100 3.2 4.8 0.00 0.00 0.00 51 1017.1
20260504002248 8 199 0.0 1.6 0.00 0.00 0.00 53 1017.3
20260504001746 8 114 1.6 3.2 0.00 0.00 0.00 57 1017.1
20260504001243 8 69 0.0 3.2 0.00 0.00 0.00 51 1017.1
20260504000740 9 148 0.0 0.0 0.00 0.00 0.00 55 1017.0
20260504000236 9 132 1.6 1.6 0.00 0.00 0.00 49 1017.1
20260503235735 10 113 1.6 3.2 0.00 0.00 0.00 49 1017.1
20260503235232 9 117 3.2 4.8 0.00 0.00 0.00 50 1017.1
20260503234730 10 135 0.0 1.6 0.00 0.00 0.00 51 1017.1
20260503234227 10 122 3.2 4.8 0.00 0.00 0.00 45 1017.0
20260503233724 10 135 4.8 4.8 0.00 0.00 0.00 43 1017.2
20260503233219 11 236 1.6 4.8 0.00 0.00 0.00 46 1017.2
20260503232716 11 80 0.0 3.2 0.00 0.00 0.00 38 1017.0
20260503232213 12 225 1.6 3.2 0.00 0.00 0.00 36 1017.2
20260503231712 12 284 0.0 1.6 0.00 0.00 0.00 42 1017.0
20260503231208 14 227 1.6 1.6 0.00 0.00 0.00 33 1017.1
20260503230704 13 246 3.2 3.2 0.00 0.00 0.00 34 1017.2
20260503230202 14 222 3.2 4.8 0.00 0.00 0.00 32 1017.0
20260503225659 14 329 3.2 4.8 0.00 0.00 0.00 32 1017.1
20260503225154 14 271 3.2 14.5 0.00 0.00 0.00 35 1017.2
20260503224652 15 241 3.2 6.4 0.00 0.00 0.00 30 1017.2
20260503224149 14 267 3.2 4.8 0.00 0.00 0.00 32 1017.1
20260503223647 15 204 3.2 14.5 0.00 0.00 0.00 32 1017.2
20260503223143 15 242 4.8 9.7 0.00 0.00 0.00 33 1016.9
20260503222641 14 173 4.8 11.3 0.00 0.00 0.00 30 1016.8
20260503222138 14 264 9.7 12.9 0.00 0.00 0.00 31 1017.1
20260503221637 15 171 11.3 14.5 0.00 0.00 0.00 29 1016.8
20260503221133 15 261 6.4 9.7 0.00 0.00 0.00 32 1016.8
20260503220630 15 161 1.6 4.8 0.00 0.00 0.00 32 1016.8
20260503220127 16 197 1.6 3.2 0.00 0.00 0.00 28 1017.0
20260503215624 15 70 1.6 9.7 0.00 0.00 0.00 36 1016.9
20260503215120 15 202 6.4 9.7 0.00 0.00 0.00 33 1016.9
20260503214619 14 230 3.2 9.7 0.00 0.00 0.00 31 1017.0
20260503214114 15 157 4.8 9.7 0.00 0.00 0.00 29 1017.0
20260503213609 14 142 3.2 6.4 0.00 0.00 0.00 29 1016.9
20260503213104 15 230 9.7 14.5 0.00 0.00 0.00 29 1017.1
20260503212602 15 238 3.2 6.4 0.00 0.00 0.00 34 1017.1
20260503212059 13 248 4.8 12.9 0.00 0.00 0.00 34 1017.3
20260503211556 14 204 8.0 14.5 0.00 0.00 0.00 33 1017.3
20260503211052 15 113 11.3 16.1 0.00 0.00 0.00 29 1017.1
20260503210549 15 270 3.2 4.8 0.00 0.00 0.00 30 1017.2
20260503210044 14 264 4.8 9.7 0.00 0.00 0.00 30 1017.2
20260503205541 14 259 8.0 12.9 0.00 0.00 0.00 32 1017.4
20260503205038 14 238 6.4 9.7 0.00 0.00 0.00 33 1017.3
20260503204535 14 186 9.7 16.1 0.00 0.00 0.00 32 1017.3
20260503204032 14 247 6.4 16.1 0.00 0.00 0.00 33 1017.1
20260503203529 15 251 11.3 16.1 0.00 0.00 0.00 31 1017.2
20260503203026 13 241 0.0 12.9 0.00 0.00 0.00 36 1017.6
20260503202524 15 211 6.4 14.5 0.00 0.00 0.00 34 1017.6
20260503202022 15 268 1.6 6.4 0.00 0.00 0.00 28 1017.5
20260503201520 15 184 0.0 3.2 0.00 0.00 0.00 33 1017.7
20260503201017 15 90 3.2 4.8 0.00 0.00 0.00 31 1017.5
20260503200513 14 326 3.2 3.2 0.00 0.00 0.00 34 1017.6
20260503200010 15 227 6.4 6.4 0.00 0.00 0.00 31 1017.9
20260503195507 14 13 0.0 3.2 0.00 0.00 0.00 40 1017.6
20260503195003 13 8 0.0 11.3 0.00 0.00 0.00 31 1017.9
20260503194501 13 206 3.2 4.8 0.00 0.00 0.00 35 1017.9
20260503194000 13 168 6.4 20.9 0.00 0.00 0.00 33 1018.1
20260503193457 13 106 3.2 11.3 0.00 0.00 0.00 33 1018.1
20260503192953 13 259 6.4 16.1 0.00 0.00 0.00 32 1018.5
20260503192449 13 210 6.4 14.5 0.00 0.00 0.00 33 1018.0
20260503191944 13 83 3.2 3.2 0.00 0.00 0.00 37 1018.2
20260503191443 14 205 4.8 11.3 0.00 0.00 0.00 30 1018.0
20260503190938 13 348 3.2 3.2 0.00 0.00 0.00 34 1018.3
20260503190436 13 219 0.0 3.2 0.00 0.00 0.00 29 1018.3
20260503185933 13 245 3.2 9.7 0.00 0.00 0.00 30 1018.8
20260503185429 12 20 0.0 3.2 0.00 0.00 0.00 34 1018.6
20260503184928 13 334 6.4 9.7 0.00 0.00 0.00 32 1018.8
20260503184425 13 0 4.8 6.4 0.00 0.00 0.00 30 1018.9
20260503183922 13 143 0.0 4.8 0.00 0.00 0.00 42 1018.9
20260503183418 13 242 6.4 6.4 0.00 0.00 0.00 37 1019.0
20260503182916 12 188 0.0 4.8 0.00 0.00 0.00 38 1019.0
20260503182415 11 207 9.7 11.3 0.00 0.00 0.00 38 1019.0
20260503181911 12 241 11.3 27.4 0.00 0.00 0.00 38 1019.1
20260503181408 12 248 8.0 12.9 0.00 0.00 0.00 38 1018.9
20260503180904 12 7 1.6 9.7 0.00 0.00 0.00 33 1019.0
20260503180403 12 277 6.4 9.7 0.00 0.00 0.00 38 1019.4
20260503175859 11 199 12.9 22.5 0.00 0.00 0.00 33 1019.1
20260503175357 11 269 4.8 14.5 0.00 0.00 0.00 34 1019.2
20260503174857 11 84 4.8 12.9 0.00 0.00 0.00 39 1019.1
20260503174356 12 194 9.7 12.9 0.00 0.00 0.00 35 1019.4
20260503173851 11 160 1.6 3.2 0.00 0.00 0.00 34 1019.2
20260503173347 11 307 8.0 22.5 0.00 0.00 0.00 32 1019.5
20260503172844 11 217 6.4 14.5 0.00 0.00 0.00 42 1019.4
20260503172342 11 306 4.8 4.8 0.00 0.00 0.00 33 1019.5
20260503171837 11 117 3.2 11.3 0.00 0.00 0.00 35 1019.6
20260503171335 11 199 4.8 12.9 0.00 0.00 0.00 34 1019.8
20260503170832 10 49 6.4 11.3 0.00 0.00 0.00 38 1019.6
20260503170328 10 73 6.4 9.7 0.00 0.00 0.00 41 1019.6
20260503150720 7 215 4.8 9.7 0.00 0.00 0.00 47 1020.8
20260503150217 8 190 12.9 17.7 0.00 0.00 0.00 46 1020.8
20260503140141 6 25 1.6 12.9 0.00 0.00 0.00 52 1020.7
20260503131110 5 226 4.8 9.7 0.00 0.00 0.00 55 1020.9
20260503130608 5 68 6.4 17.7 0.00 0.00 0.00 55 1020.6
20260503130106 5 71 3.2 14.5 0.00 0.00 0.00 54 1020.7
20260503110458 2 211 3.2 6.4 0.00 0.00 0.00 65 1019.1
20260503090344 3 57 1.6 6.4 0.00 0.00 0.00 66 1018.1
20260503081311 3 85 8.0 11.3 0.00 0.00 0.00 65 1017.6
20260503080807 3 209 4.8 11.3 0.00 0.00 0.00 63 1017.8
20260503080305 3 20 0.0 1.6 0.00 0.00 0.00 66 1017.6
20260503072741 3 243 3.2 14.5 0.00 0.00 0.00 65 1017.1
20260503072238 3 178 1.6 3.2 0.00 0.00 0.00 67 1017.2
20260503071734 3 37 4.8 9.7 0.00 0.00 0.00 65 1017.1
20260503071231 3 56 4.8 11.3 0.00 0.00 0.00 65 1017.1
20260503070727 3 344 3.2 4.8 0.00 0.00 0.00 65 1016.9
20260503070226 3 113 12.9 20.9 0.00 0.00 0.00 63 1016.9
20260503060145 4 53 4.8 6.4 0.00 0.00 0.00 61 1017.1
20260503054632 4 91 1.6 9.7 0.00 0.00 0.00 63 1017.1
20260503054129 5 80 6.4 11.3 0.00 0.00 0.00 59 1017.1
20260503053628 5 331 3.2 9.7 0.00 0.00 0.00 63 1017.2
20260503053126 5 19 3.2 4.8 0.00 0.00 0.00 65 1017.1
20260503052622 5 20 0.0 0.0 0.00 0.00 0.00 65 1017.2
20260503052118 5 54 0.0 0.0 0.00 0.00 0.00 65 1017.0
20260503051613 5 101 3.2 3.2 0.00 0.00 0.00 64 1016.9
20260503051111 5 228 1.6 11.3 0.00 0.00 0.00 63 1017.1
20260503050608 5 299 0.0 1.6 0.00 0.00 0.00 65 1017.1
20260503050105 5 35 4.8 9.7 0.00 0.00 0.00 65 1017.0
20260503045601 5 48 1.6 4.8 0.00 0.00 0.00 70 1017.1
20260503045059 5 343 4.8 6.4 0.00 0.00 0.00 68 1017.2
20260503044555 5 12 0.0 3.2 0.00 0.00 0.00 66 1017.1
20260503044053 5 190 4.8 4.8 0.00 0.00 0.00 71 1017.1
20260503043549 4 128 3.2 4.8 0.00 0.00 0.00 68 1017.1
20260503043045 5 237 0.0 1.6 0.00 0.00 0.00 75 1017.1
20260503042542 5 47 0.0 4.8 0.00 0.00 0.00 64 1017.1
20260503042039 5 48 3.2 4.8 0.00 0.00 0.00 68 1017.1
20260503041536 5 162 1.6 4.8 0.00 0.00 0.00 68 1017.1
20260503041034 5 5 3.2 4.8 0.00 0.00 0.00 68 1017.0
20260503040531 5 29 0.0 0.0 0.00 0.00 0.00 67 1017.3
20260503040028 5 57 4.8 6.4 0.00 0.00 0.00 67 1017.1
20260503035525 5 46 4.8 4.8 0.00 0.00 0.00 68 1017.1
20260503035022 5 54 3.2 4.8 0.00 0.00 0.00 70 1017.1
20260503034519 5 43 0.0 0.0 0.00 0.00 0.00 67 1017.3
20260503034016 5 116 4.8 4.8 0.00 0.00 0.00 66 1017.3
20260503033513 5 59 1.6 3.2 0.00 0.00 0.00 70 1017.2
20260503033011 5 52 1.6 3.2 0.00 0.00 0.00 70 1017.3
20260503032510 5 87 0.0 3.2 0.00 0.00 0.00 67 1017.3
20260503032008 5 73 3.2 4.8 0.00 0.00 0.00 68 1017.2
20260503031506 5 203 0.0 0.0 0.00 0.00 0.00 66 1017.2
20260503031002 5 195 1.6 3.2 0.00 0.00 0.00 67 1017.2
20260503030458 5 230 3.2 6.4 0.00 0.00 0.00 64 1017.3
20260503025955 6 257 0.0 4.8 0.00 0.00 0.00 64 1017.3
20260503025452 6 67 3.2 4.8 0.00 0.00 0.00 62 1017.3
20260503024949 5 221 3.2 6.4 0.00 0.00 0.00 61 1017.4
20260503024445 5 123 0.0 0.0 0.00 0.00 0.00 66 1017.3
20260503023943 6 286 0.0 6.4 0.00 0.00 0.00 63 1017.4
20260503023440 6 283 3.2 3.2 0.00 0.00 0.00 59 1017.6
20260503022937 6 214 1.6 4.8 0.00 0.00 0.00 58 1017.6
20260503022432 6 247 3.2 9.7 0.00 0.00 0.00 59 1017.3
20260503021928 6 220 8.0 9.7 0.00 0.00 0.00 57 1017.2
20260503021424 5 289 1.6 4.8 0.00 0.00 0.00 59 1017.5
20260503020922 5 46 0.0 0.0 0.00 0.00 0.00 64 1017.1
20260503020419 6 128 0.0 0.0 0.00 0.00 0.00 64 1017.2
20260503015915 6 136 0.0 0.0 0.00 0.00 0.00 64 1017.0
20260503015412 6 108 3.2 4.8 0.00 0.00 0.00 62 1016.8
20260503014908 6 155 0.0 3.2 0.00 0.00 0.00 58 1017.0